Regional Weather Roundup
Issued by NWS

Home | Current Version | Previous Version | Graphics & Text | Print | Product List | Glossary On
Versions: 1 2 3 4 5 6 7 8 9 10 11 12 13 14 15 16 17 18 19 20 21 22 23 24 25 26 27 28 29 30 31 32 33 34 35 36 37 38 39 40 41 42 43 44 45 46 47 48 49 50
000
ASUS45 KCYS 292110
RWRWY

WYOMING REGIONAL WEATHER ROUNDUP
NATIONAL WEATHER SERVICE CHEYENNE WY
300 PM MDT MON JUN 29 2015

NOTE:  "FAIR" INDICATES FEW OR NO CLOUDS BELOW 12,000 FEET
WITH NO SIGNIFICANT WEATHER AND/OR OBSTRUCTIONS TO VISIBILITY.

WYZ001-292200-
YELLOWSTONE NATIONAL PARK

CITY           SKY/WX    TMP DP  RH WIND       PRES   REMARKS
LK YELLOWSTONE   N/A     80  38  22 VRB3      30.40F
W YELLOWSTONE  NOT AVBL

$$
WYZ002>013-054>058-071-098>099-292200-
NORTHERN WYOMING

CITY           SKY/WX    TMP DP  RH WIND       PRES   REMARKS
JACKSON        FAIR      86  48  26 S6        30.26F
CODY           FAIR      91  45  19 E8        30.17F
GREYBULL       FAIR      97  37  12 VRB5      30.07F HX  92
WORLAND        FAIR      94  26   9 VRB5      30.11F
SHERIDAN       FAIR      93  52  24 VRB6      30.12F HX  90
BUFFALO        FAIR      88  49  25 N9        30.21S
GILLETTE       FAIR      88  50  27 N7        30.15F
HULETT         FAIR      86  50  28 CALM      30.16S
NEWCASTLE      FAIR      86  46  25 W6        30.15F

$$
WYZ014>020-022>026-101>103-292200-
CENTRAL WYOMING

CITY           SKY/WX    TMP DP  RH WIND       PRES   REMARKS
BIG PINEY      FAIR      86  40  19 W7        30.34F
PINEDALE       FAIR      86  34  15 NE8       30.34F
DUBOIS         FAIR      82  39  21 SE15G22   30.34F
LANDER         FAIR      90  45  21 NE5       30.21F
RIVERTON       FAIR      88  44  21 VRB5      30.23F
CASPER         FAIR      90  36  14 VRB7      30.22F
DOUGLAS        FAIR      90  42  18 N13       30.20F

$$
WYZ021-027>030-104>119-292200-
SOUTHERN WYOMING

CITY           SKY/WX    TMP DP  RH WIND       PRES   REMARKS
EVANSTON       FAIR      90  39  16 NE7       30.32F
KEMMERER       FAIR     N/A N/A N/A E7        30.36S
FORT BRIDGER   CLEAR     88  37  16 NW5G18    30.35F
ROCK SPRINGS   FAIR      87  43  21 VRB3      30.31F
DIXON          FAIR      89  34  14 NE14G21   30.31S
RAWLINS        PTSUNNY   84  42  22 VRB6      30.33F
SARATOGA       FAIR      84  39  20 N6        30.35F
LARAMIE        FAIR      78  44  29 E13       30.36F
CHEYENNE       FAIR      79  52  38 NW10G20   30.28S
TORRINGTON     FAIR      88  52  29 W6        30.12F
PINE BLUFFS    FAIR      86  50  28 S7        30.21F

$$



USA.gov is the U.S. government's official web portal to all federal, state and local government web resources and services.